Location: Munkebjergskolens Observatorium
(55.3864°N, 10.3987°E)
Time: 04:09:48
(UTC+02:00)

KKS-1 - Pass Details

Date: 11 April 2023
Orbit: 633 x 644 km, 98.2° (Epoch: 31 May)

Event Time Altitude Azimuth Distance (km) Brightness Sun altitude
Rises 23:19:05 0° 21° (NNE) 2,946 ? -21.4°
Reaches altitude 10° 23:21:30 10° 32° (NNE) 2,033 ? -21.6°
Enters shadow 23:24:52 30° 79° (E) 1,136 ? -21.8°
